When you browse on this site, cookies collect data to enhance your experience and personalize the content and advertising you see.
Visit our Privacy Policy to learn more. By continuing to use the site, you agree to this use of cookies and data.
  • In Spain
  • List of Countries
  • For 7 days
  • Water Temperature
  • Weather Map
  • Weather Widgets
  • user-avatar
    Login

    Hourly Weather Korçe

    Today, 21 August, Wednesday

    Time Temperature Precipitation Wind Pressure Humidity
    00:00 +19°C° 0 mm 1 mps 670 mmHg 59%
    01:00 +19°C° 0 mm 1 mps 670 mmHg 59%
    02:00 +18°C° 0 mm 1 mps 670 mmHg 60%
    03:00 +18°C° 0 mm 1 mps 669 mmHg 60%
    04:00 +18°C° 0 mm 1 mps 669 mmHg 61%
    05:00 +19°C° 0 mm 1 mps 670 mmHg 55%
    06:00 +21°C° 0 mm 1 mps 671 mmHg 49%
    07:00 +23°C° 0 mm 1 mps 671 mmHg 43%
    08:00 +26°C° 0 mm 1 mps 672 mmHg 38%
    09:00 +28°C° 0 mm 1 mps 672 mmHg 33%
    10:00 +30°C° 0 mm 1 mps 673 mmHg 27%
    11:00 +31°C° 0 mm 2 mps 672 mmHg 25%
    12:00 +32°C° 0 mm 2 mps 672 mmHg 23%
    13:00 +34°C° 0 mm 3 mps 672 mmHg 21%
    14:00 +33°C° 0 mm 3 mps 672 mmHg 23%
    15:00 +32°C° 0 mm 4 mps 671 mmHg 25%
    16:00 +32°C° 0 mm 4 mps 671 mmHg 27%
    17:00 +28°C° 0 mm 3 mps 670 mmHg 36%
    18:00 +25°C° 0 mm 2 mps 670 mmHg 45%
    19:00 +22°C° 0 mm 1 mps 669 mmHg 54%
    20:00 +21°C° 0 mm 1 mps 669 mmHg 55%
    21:00 +21°C° 0 mm 1 mps 669 mmHg 56%
    22:00 +20°C° 0 mm 1 mps 669 mmHg 57%
    23:00 +20°C° 0 mm 1 mps 669 mmHg 55%

    Tomorrow, 22 August, Thursday

    Time Temperature Precipitation Wind Pressure Humidity
    00:00 +19°C° 0 mm 1 mps 669 mmHg 54%
    01:00 +19°C° 0 mm 1 mps 669 mmHg 52%
    02:00 +19°C° 0 mm 1 mps 669 mmHg 52%
    03:00 +17°C° 0 mm 2 mps 669 mmHg 51%
    04:00 +17°C° 0 mm 2 mps 669 mmHg 51%
    05:00 +19°C° 0 mm 2 mps 670 mmHg 46%
    06:00 +22°C° 0 mm 1 mps 670 mmHg 41%
    07:00 +24°C° 0 mm 1 mps 671 mmHg 36%
    08:00 +26°C° 0 mm 2 mps 672 mmHg 32%
    09:00 +28°C° 0 mm 2 mps 672 mmHg 27%
    10:00 +30°C° 0 mm 2 mps 673 mmHg 23%
    11:00 +31°C° 0 mm 2 mps 673 mmHg 21%
    12:00 +32°C° 0 mm 2 mps 673 mmHg 20%
    13:00 +34°C° 0 mm 3 mps 673 mmHg 19%
    14:00 +33°C° 0 mm 3 mps 672 mmHg 21%
    15:00 +31°C° 0 mm 3 mps 672 mmHg 23%
    16:00 +30°C° 0 mm 3 mps 671 mmHg 25%
    17:00 +28°C° 0 mm 3 mps 671 mmHg 31%
    18:00 +25°C° 0 mm 2 mps 670 mmHg 38%
    19:00 +23°C° 0 mm 2 mps 670 mmHg 44%
    20:00 +22°C° 0 mm 1 mps 670 mmHg 47%
    21:00 +21°C° 0 mm 1 mps 670 mmHg 49%
    22:00 +20°C° 0 mm 1 mps 670 mmHg 52%
    23:00 +20°C° 0 mm 1 mps 670 mmHg 53%

    Day after tomorrow, 23 August, Friday

    Time Temperature Precipitation Wind Pressure Humidity
    00:00 +20°C° 0 mm 1 mps 670 mmHg 53%
    01:00 +20°C° 0 mm 1 mps 670 mmHg 54%
    02:00 +20°C° 0 mm 1 mps 670 mmHg 55%
    03:00 +19°C° 0 mm 1 mps 670 mmHg 56%
    04:00 +18°C° 0 mm 2 mps 669 mmHg 57%
    05:00 +21°C° 0 mm 1 mps 670 mmHg 52%
    06:00 +23°C° 0 mm 1 mps 671 mmHg 48%
    07:00 +25°C° 0 mm 1 mps 672 mmHg 43%
    08:00 +27°C° 0 mm 2 mps 672 mmHg 38%
    09:00 +28°C° 0 mm 2 mps 672 mmHg 33%
    10:00 +30°C° 0 mm 3 mps 673 mmHg 28%
    11:00 +30°C° 0 mm 2 mps 672 mmHg 28%
    12:00 +30°C° 0 mm 2 mps 672 mmHg 29%
    13:00 +30°C° 0 mm 2 mps 672 mmHg 29%
    14:00 +29°C° 0 mm 2 mps 671 mmHg 31%
    15:00 +28°C° 0 mm 2 mps 671 mmHg 33%
    16:00 +28°C° 0 mm 2 mps 671 mmHg 35%
    17:00 +26°C° 0 mm 2 mps 670 mmHg 38%
    18:00 +25°C° 0 mm 2 mps 670 mmHg 42%
    19:00 +23°C° 0 mm 1 mps 670 mmHg 45%
    20:00 +23°C° 0 mm 1 mps 670 mmHg 47%
    21:00 +22°C° 0 mm 1 mps 670 mmHg 49%
    22:00 +21°C° 0 mm 1 mps 670 mmHg 51%
    23:00 +21°C° 0 mm 1 mps 670 mmHg 51%

    24 August, Saturday

    Time Temperature Precipitation Wind Pressure Humidity
    00:00 +21°C° 0 mm 1 mps 669 mmHg 51%
    01:00 +21°C° 0 mm 1 mps 669 mmHg 51%
    02:00 +20°C° 0 mm 1 mps 669 mmHg 52%
    03:00 +20°C° 0 mm 1 mps 669 mmHg 53%
    04:00 +20°C° 0 mm 1 mps 669 mmHg 55%
    05:00 +21°C° 0 mm 1 mps 669 mmHg 50%
    06:00 +23°C° 0 mm 2 mps 670 mmHg 46%
    07:00 +24°C° 0 mm 2 mps 670 mmHg 41%
    08:00 +26°C° 0 mm 2 mps 671 mmHg 37%
    09:00 +28°C° 0 mm 2 mps 671 mmHg 32%
    10:00 +30°C° 0 mm 2 mps 672 mmHg 28%
    11:00 +30°C° 0 mm 2 mps 672 mmHg 27%
    12:00 +30°C° 0 mm 3 mps 671 mmHg 27%
    13:00 +30°C° 0 mm 3 mps 671 mmHg 27%
    14:00 +29°C° 0 mm 2 mps 670 mmHg 29%
    15:00 +29°C° 0 mm 2 mps 670 mmHg 31%
    16:00 +28°C° 0 mm 2 mps 670 mmHg 33%
    17:00 +26°C° 0 mm 2 mps 669 mmHg 37%
    18:00 +25°C° 0 mm 1 mps 669 mmHg 41%
    19:00 +23°C° 0 mm 1 mps 669 mmHg 45%
    20:00 +22°C° 0 mm 1 mps 669 mmHg 47%
    21:00 +22°C° 0 mm 1 mps 669 mmHg 49%
    22:00 +21°C° 0 mm 1 mps 669 mmHg 51%
    23:00 +20°C° 0 mm 1 mps 668 mmHg 52%

    25 August, Sunday

    Time Temperature Precipitation Wind Pressure Humidity
    00:00 +19°C° 0 mm 1 mps 668 mmHg 54%
    01:00 +19°C° 0 mm 1 mps 668 mmHg 55%
    02:00 +19°C° 0 mm 1 mps 668 mmHg 55%
    03:00 +19°C° 0 mm 1 mps 667 mmHg 54%
    04:00 +19°C° 0 mm 1 mps 667 mmHg 54%
    05:00 +21°C° 0 mm 1 mps 668 mmHg 49%
    06:00 +23°C° 0 mm 1 mps 669 mmHg 45%
    07:00 +25°C° 0 mm 1 mps 669 mmHg 40%
    08:00 +27°C° 0 mm 2 mps 670 mmHg 35%
    09:00 +29°C° 0 mm 2 mps 670 mmHg 31%
    10:00 +30°C° 0 mm 2 mps 671 mmHg 26%
    11:00 +30°C° 0 mm 2 mps 670 mmHg 27%
    12:00 +30°C° 0 mm 2 mps 670 mmHg 28%
    13:00 +29°C° 0 mm 2 mps 670 mmHg 29%
    14:00 +29°C° 0 mm 2 mps 669 mmHg 31%
    15:00 +28°C° 0 mm 3 mps 669 mmHg 34%
    16:00 +27°C° 0 mm 3 mps 669 mmHg 37%
    17:00 +26°C° 0 mm 2 mps 668 mmHg 41%
    18:00 +24°C° 0 mm 2 mps 668 mmHg 46%
    19:00 +22°C° 0 mm 1 mps 668 mmHg 51%
    20:00 +21°C° 0 mm 1 mps 668 mmHg 52%
    21:00 +21°C° 0 mm 1 mps 668 mmHg 54%
    22:00 +20°C° 0 mm 1 mps 668 mmHg 55%
    23:00 +20°C° 0 mm 1 mps 668 mmHg 54%

    26 August, Monday

    Time Temperature Precipitation Wind Pressure Humidity
    00:00 +19°C° 0 mm 1 mps 668 mmHg 53%
    01:00 +18°C° 0 mm 2 mps 667 mmHg 52%
    02:00 +18°C° 0 mm 2 mps 667 mmHg 53%
    03:00 +18°C° 0 mm 2 mps 667 mmHg 53%
    04:00 +17°C° 0 mm 2 mps 667 mmHg 54%
    05:00 +19°C° 0 mm 2 mps 668 mmHg 49%
    06:00 +21°C° 0 mm 2 mps 668 mmHg 45%
    07:00 +24°C° 0 mm 2 mps 669 mmHg 41%
    08:00 +26°C° 0 mm 2 mps 670 mmHg 35%
    09:00 +28°C° 0 mm 2 mps 670 mmHg 30%
    10:00 +30°C° 0 mm 2 mps 671 mmHg 25%
    11:00 +31°C° 0 mm 2 mps 671 mmHg 24%
    12:00 +31°C° 0 mm 2 mps 671 mmHg 23%
    13:00 +31°C° 0 mm 2 mps 670 mmHg 21%
    14:00 +30°C° 0 mm 2 mps 670 mmHg 24%
    15:00 +29°C° 0 mm 3 mps 670 mmHg 26%
    16:00 +29°C° 0 mm 3 mps 669 mmHg 29%
    17:00 +27°C° 0 mm 2 mps 669 mmHg 34%
    18:00 +25°C° 0 mm 2 mps 669 mmHg 40%
    19:00 +23°C° 0 mm 1 mps 668 mmHg 45%
    20:00 +22°C° 0 mm 1 mps 669 mmHg 47%
    21:00 +22°C° 0 mm 1 mps 669 mmHg 50%
    22:00 +21°C° 0 mm 1 mps 669 mmHg 52%
    23:00 +21°C° 0 mm 1 mps 669 mmHg 54%
    Show more